{"data":{"norad_id":60584,"intl_designator":"2024-150B","name":"STARLINK-32204","alt_names":[],"object_type":"PAYLOAD","status":"ACTIVE","operator":null,"country":"US","launch_date":"2024-08-20","launch_site_code":"AFETR","launch_vehicle":null,"mission":null,"orbit_class":"UNKNOWN","rcs_meters":null,"size_class":null,"mass_kg":null,"dimensions":null,"purposes":["comms"],"wikipedia_slug":null,"has_3d_model":false,"image_url":null,"decayed_at":null,"tle_current":{"epoch":"2026-09-21T20:17:30.552864Z","epoch_age_seconds":72655,"freshness":"FRESH","line1":"1 60584U 24150B   26264.84549251  .00002560  00000+0  86927-4 0  9991","line2":"2 60584  53.1595 111.6520 0001482  73.4861 286.6304 15.34384676118133","mean_motion":15.34384676,"eccentricity":0.0001482,"inclination_deg":53.1595,"raan_deg":111.652,"arg_perigee_deg":73.4861,"mean_anomaly_deg":286.6304,"bstar":8.6927e-5,"rev_number":11813,"period_min":93.848695345026,"perigee_km":461.73496746996,"apogee_km":463.76260601715,"semimajor_km":6840.8857867436,"source":"CELESTRAK","updated_at":"2026-09-22T09:00:49.238520Z"}}}